Miscellaneous Local Product
Issued by NWS Hastings, NE

Home | Current Version | Previous Version | Graphics & Text | Print | Product List | Glossary On
Versions: 1 2 3 4 5 6 7 8 9 10 11 12 13 14 15 16 17 18 19 20 21 22 23 24 25 26 27 28 29 30 31 32 33 34 35 36 37 38 39 40 41 42 43 44 45 46 47 48 49 50
000
AXUS43 KGID 211902
MISGRI

GID CWA HOURLY WEATHER ROUNDUP
NATIONAL WEATHER SERVICE HASTINGS NE
200 PM CDT THU AUG 21 2014

NOTE: "FAIR" INDICATES FEW OR NO CLOUDS BELOW 12,000 FEET WITH NO
SIGNIFICANT WEATHER AND/OR OBSTRUCTIONS TO VISIBILITY.

...SOUTH CENTRAL NEBRASKA...

CITY           SKY/WX    TMP DP  RH WIND       PRES   REMARKS
GRAND ISLAND   MOSUNNY   87  70  56 S10       29.87R HX  92
HASTINGS       PTSUNNY   80  68  66 S6        29.87R
KEARNEY        MOSUNNY   82  72  69 S8        29.89R
ORD            SUNNY     85  68  56 VRB5      29.86S
YORK           PTSUNNY   81 N/A N/A SW9       29.86S
AURORA         MOSUNNY   81  71  71 S9        29.86R
LEXINGTON      SUNNY     86  69  55 NW6       29.89S HX  90
HOLDREGE       SUNNY     85  70  60 W7        29.88S
HEBRON         PTSUNNY   86  71  62 SE7       29.84F HX  91

...NEBRASKA PANHANDLE...

CITY           SKY/WX    TMP DP  RH WIND       PRES   REMARKS
CHADRON        MOSUNNY   85  53  33 VRB3      29.96F
ALLIANCE       SUNNY     85  49  28 N9        30.00F
SCOTTSBLUFF    SUNNY     85  54  34 NW5       30.02S
SIDNEY         SUNNY     86  50  28 N12G18    30.04S

...WESTERN AND NORTH CENTRAL NEBRASKA...

CITY           SKY/WX    TMP DP  RH WIND       PRES   REMARKS
VALENTINE      SUNNY     85  59  41 N12       29.92S
AINSWORTH      SUNNY     82  60  47 NE8       29.92S
ONEILL         SUNNY     83  69  60 CALM      29.88S
BROKEN BOW     SUNNY     86  68  54 N6        29.90F
IMPERIAL       SUNNY     88  54  31 NW10G16   29.96S
NORTH PLATTE   SUNNY     89  62  40 SE6       29.91S
MCCOOK         SUNNY     93  56  28 VRB5      29.90S HX  91

...EASTERN NEBRASKA...

CITY           SKY/WX    TMP DP  RH WIND       PRES   REMARKS
NORFOLK        SUNNY     89  71  55 W8        29.82S HX  95
SO SIOUX CITY  SUNNY     88  74  63 S6        29.80R HX  96
TEKAMAH        MOSUNNY   91  71  51 SW13      29.81R HX  97
COLUMBUS       SUNNY     86  72  62 SW7G16    29.85R HX  92
ALBION         SUNNY     87  67  52 NW8       29.85S HX  90
OMAHA EPPLEY   PTSUNNY   87  69  54 SW12      29.83R HX  91
OFFUTT AFB     PTSUNNY   85  75  70 SW9       29.84R HX  94
MILLARD        PTSUNNY   86  72  62 SW5       29.84R HX  91
LINCOLN        PTSUNNY   85  70  60 SW8       29.85R
NEBRASKA CITY  CLOUDY    86  71  61 W5        29.84R HX  92
BEATRICE       LGT RAIN  84  73  70 SW10      29.86R HX  90
FALLS CITY     MOSUNNY   96  74  48 S16G24    29.82F HX 107

...NORTHERN KANSAS...

CITY           SKY/WX    TMP DP  RH WIND       PRES   REMARKS
GOODLAND       SUNNY     90  49  24 N12G18    29.98F
HILL CITY      SUNNY     93  65  39 VRB5      29.86F HX  95
NORTON         CLEAR     93  50  22 NW12      29.86F HX  90
PHILLIPSBURG   SUNNY     93  63  36 S6        29.84S HAZE    HX  94
SMITH CENTER   MOSUNNY   91  66  43 S12G17    29.84S HX  94
BELOIT         SUNNY     97  68  38 S13G18    29.81S HX 101
HAYS           SUNNY     97  66  36 S18       29.85S HX 100
RUSSELL        MOSUNNY   98  65  33 S20G30    29.83S HX 101
CONCORDIA      SUNNY     92  70  48 S16       29.83F HX  97
SALINA         SUNNY     97  66  36 S17G30    29.84F HX 100
TOPEKA         SUNNY     97  70  41 S13G25    29.86F HX 103



USA.gov is the U.S. government's official web portal to all federal, state and local government web resources and services.